This is the latest recevied weather packets stored in our database for station/object HP3ICC-24. If no packets are shown the sender has not sent any weather packets the latest 10 day(s).
| Time | Temp. | Humidity | Pressure | Rain* | Wind** | Luminosity | Snow |
|---|---|---|---|---|---|---|---|
| 1777562400 | 20.56° C | 63% | 1011 hPa | 0 mm | - | - | - |
| 1777561260 | 20.56° C | 63% | 1011 hPa | 0 mm | - | - | - |
| 1777561200 | 20.56° C | 63% | 1011 hPa | 0 mm | - | - | - |
| 1777560059 | 20.56° C | 65% | 1011 hPa | 0 mm | - | - | - |
| 1777559999 | 20.56° C | 65% | 1011 hPa | 0 mm | - | - | - |
| 1777558859 | 20° C | 69% | 1011 hPa | 0 mm | - | - | - |
| 1777558799 | 20° C | 69% | 1011 hPa | 0 mm | - | - | - |
| 1777557659 | 20° C | 69% | 1011 hPa | 0 mm | - | - | - |
| 1777557599 | 20° C | 69% | 1011 hPa | 0 mm | - | - | - |
| 1777556458 | 17.78° C | 79% | 1011 hPa | 0 mm | - | - | - |
| 1777556398 | 17.78° C | 79% | 1011 hPa | 0 mm | - | - | - |
| 1777555258 | 18.33° C | 79% | 1010 hPa | 0 mm | - | - | - |
| 1777555198 | 18.33° C | 79% | 1010 hPa | 0 mm | - | - | - |
| 1777554056 | 17.78° C | 78% | 1011 hPa | 0 mm | - | - | - |
| 1777553996 | 17.78° C | 78% | 1011 hPa | 0 mm | - | - | - |
| 1777552856 | 15.56° C | 61% | 1011 hPa | 0 mm | - | - | - |
| 1777552796 | 15.56° C | 61% | 1011 hPa | 0 mm | - | - | - |
| 1777551656 | 15.56° C | 61% | 1009 hPa | 0 mm | - | - | - |
| 1777551595 | 15.56° C | 61% | 1009 hPa | 0 mm | - | - | - |
| 1777550455 | 15.56° C | 61% | 1011 hPa | 0 mm | - | - | - |
| 1777550395 | 15.56° C | 61% | 1011 hPa | 0 mm | - | - | - |
| 1777549254 | 15.56° C | 61% | 1011 hPa | 0 mm | - | - | - |
| 1777549194 | 15.56° C | 61% | 1011 hPa | 0 mm | - | - | - |
| 1777548054 | 15.56° C | 61% | 1009 hPa | 0 mm | - | - | - |
| 1777547994 | 15.56° C | 61% | 1009 hPa | 0 mm | - | - | - |
* Rain latest hour (hover to see other rain measurements)
** Current wind speed in m/s (hover to see current wind gust speed)